Location: Newark
(25.4800°N, 85.7200°E)
Time: 01:28:35
(UTC+00:00)

Transit 4A - Pass Details

Date: 31 August 2019
Orbit: 867 x 978 km, 66.8° (Epoch: 23 October)

Event Time Altitude Azimuth Distance (km) Brightness Sun altitude
Rises 10:26:55 0° 226° (SW) 3,644 11.7 28.6°
Reaches altitude 10° 10:29:43 10° 235° (SW) 2,708 11.4 28.0°
Maximum altitude 10:35:24 34° 298° (WNW) 1,546 10.4 26.7°
Drops below altitude 10° 10:41:08 10° 2° (N) 2,723 10.4 25.4°
Sets 10:43:58 0° 12° (NNE) 3,666 10.9 24.8°
